[[{"header":{"parameterUnit":"m.s-1","parameterCategory":1,"la1":30.2991,"la2":30.254,"lo1":-89.0895,"lo2":-89.0444,"dy":0.0017,"dx":0.0017,"nx":28,"ny":28,"refTime":"2023-08-05T03:00:00:Z","depth":0,"parameterNumber":2,"parameterNumberName":"U-component_of_WINDS"},"data":[0,0,0,0,0,0,0,0,0,0,0,0,0,0,0,0,0,0,0,0,0,0,0,0,0,0,0,0,0,0,0,0,0,0,0,0,0,0,0,0,0,0,0,0,0,0,0,0,0,0,0,0,0,0,0,0,0,0,5.3726,5.3728,0,5.3888,5.3889,5.3891,5.3826,5.3822,5.3818,5.3814,5.3983,5.3991,5.3999,0,0,0,0,0,0,0,0,0,0,0,0,0,5.3362,5.3369,5.3726,5.3728,5.373,5.3887,5.389,5.3892,5.3826,5.3822,5.3817,5.3813,5.398,5.399,5.3999,0,0,0,0,0,0,0,0,0,0,0,0,0,5.3522,5.3372,5.3726,5.3716,5.3717,5.3887,5.389,5.3892,5.3827,5.3822,5.3816,5.381,5.3977,5.3989,5.4001,5.419,0,0,5.4038,5.4043,0,0,0,0,0,0,0,0,5.3513,5.3535,5.3716,5.3717,5.3718,5.383,5.3823,5.3992,5.3829,5.3786,5.3814,5.3808,5.3937,5.3952,5.3995,5.4198,5.4205,5.4039,5.4046,5.4051,5.4055,0,0,0,0,0,0,0,5.3502,5.3528,5.379,5.3718,5.372,5.3704,5.3721,5.3855,5.3892,5.3789,5.3784,5.3804,5.3937,5.3984,5.3999,5.4208,5.4038,5.4049,5.4057,5.4061,5.4573,5.4579,0,0,0,0,0,0,5.349,5.3519,5.3785,5.3795,5.3599,5.3716,5.3734,5.38,5.389,5.3898,5.3809,5.3801,5.3966,5.3984,5.4004,5.4231,5.4051,5.4062,5.4069,5.4566,5.4574,5.4581,0,0,0,0,0,0,5.3483,5.3515,5.3778,5.3656,5.3688,5.3728,5.3803,5.3807,5.3853,5.3905,5.3912,5.385,5.3962,5.3987,5.4144,5.4235,5.4068,5.4079,5.4559,5.4569,5.4577,5.4686,0,0,0,0,0,0,5.3473,5.3512,5.3585,5.3658,5.3695,5.3915,5.3809,5.3814,5.3874,5.3865,5.3945,5.3953,5.3959,5.4126,5.4156,5.4249,5.4088,5.4551,5.4563,5.4574,5.4674,5.4698,5.4718,0,0,0,0,0,5.346,5.361,5.3589,5.3621,5.3786,5.3921,5.3942,5.3945,5.3882,5.3955,5.3988,5.3951,5.4221,5.4143,5.4176,5.4274,5.4545,5.456,5.4573,5.4664,5.4693,5.4717,0,0,0,0,0,0,5.3548,5.3619,5.3597,5.3775,5.3842,5.3909,5.4001,5.3976,5.4063,5.4051,5.4052,5.4071,5.4232,5.4269,5.418,5.4461,5.4373,5.4395,5.4431,5.4459,5.448,5.4468,5.4098,0,0,0,0,0,5.3587,5.369,5.3747,5.3899,5.3934,5.3962,5.4021,5.4017,5.4087,5.4116,5.416,5.423,5.433,5.4397,5.4492,5.4679,5.4695,5.4763,5.4785,5.4802,5.4821,5.4921,5.4951,5.4628,5.4627,5.4627,0,0,5.3672,5.3723,5.3788,5.3918,5.397,5.4076,5.3987,5.4103,5.4182,5.4134,5.4284,5.4319,5.4397,5.4569,5.4647,5.4605,5.4914,5.4821,5.4834,5.4843,5.4939,5.4969,5.4996,5.4637,5.4635,5.4634,0,0,5.3878,5.3928,5.4059,5.4112,5.4191,5.4208,5.424,5.4311,5.4332,5.4482,5.4447,5.4541,5.4715,5.4771,5.4823,5.5049,5.5018,5.508,5.5195,5.5292,5.5318,5.534,5.542,5.5448,5.5099,5.5099,5.5099,0,5.3973,5.4131,5.413,5.4249,5.4307,5.4266,5.4398,5.445,5.4557,5.4598,5.4548,5.4763,5.4813,5.4997,5.5052,5.5096,5.5131,5.5071,5.5314,5.5337,5.5358,5.5434,5.5464,5.5106,5.5105,5.5104,5.5104,0,5.4243,5.4353,5.445,5.4551,5.462,5.4745,5.4763,5.4833,5.4823,5.4845,5.4998,5.5056,5.5162,5.5205,5.5198,5.5388,5.5359,5.5312,5.5224,5.5395,5.5467,5.5496,5.5116,5.5113,5.5111,5.511,0,0,5.4511,5.4609,5.4644,5.4689,5.4772,5.4857,5.498,5.5082,5.5141,5.5216,5.5319,5.5465,5.5422,5.548,5.5478,5.5564,5.5738,5.5506,5.5508,5.5546,5.595,5.5984,5.6017,5.5717,5.5723,5.5727,5.5942,0,5.4724,5.4938,5.494,5.5137,5.5238,5.52,5.5307,5.537,5.5394,5.5483,5.551,5.5614,5.5549,5.5584,5.5667,5.5699,5.5818,5.5684,5.5813,5.5818,5.5794,5.6055,5.6092,5.6292,5.597,5.5975,5.5979,0,5.5001,5.5082,5.5289,5.5355,5.5398,5.5494,5.5586,5.5672,5.5742,5.5753,5.5818,5.5802,5.5927,5.5835,5.6007,5.5916,5.5969,5.5992,5.6,5.6012,5.5908,5.6073,5.6356,5.6386,5.6023,5.6019,5.6016,0,5.5174,5.5335,5.5479,5.5519,5.56,5.5668,5.5706,5.577,5.583,5.5911,5.595,5.6046,5.6098,5.6172,5.6182,5.6114,5.6355,5.6264,5.6368,5.6368,5.642,5.6416,5.6715,5.6456,5.6455,5.6455,5.6454,0,5.541,5.5539,5.5558,5.5647,5.5789,5.5789,5.593,5.5961,5.6018,5.6112,5.6086,5.6175,5.6184,5.6276,5.6285,5.6425,5.645,5.6462,5.6463,5.6464,5.6463,5.6499,5.6485,5.6463,5.6461,5.6459,5.6458,0,5.5628,5.5646,5.5801,5.5864,5.5883,5.5985,5.6039,5.6124,5.6144,5.6264,5.6292,5.6325,5.6431,5.6449,5.6575,5.6581,5.6749,5.6736,5.6725,5.6723,5.6825,5.6815,5.7157,5.7201,5.6914,5.6916,5.6919,0,5.5778,5.5875,5.5948,5.6008,5.6048,5.6147,5.6207,5.6211,5.6276,5.6361,5.6436,5.6539,5.6622,5.6794,5.683,5.6925,5.6914,5.7027,5.6928,5.6926,5.6914,5.6908,5.6917,5.7046,5.7049,5.7052,5.7054,0,5.6041,5.6044,5.6133,5.6224,5.6297,5.6369,5.6437,5.6489,5.6501,5.6575,5.6683,5.6747,5.6874,5.6977,5.7072,5.711,5.7085,5.7084,5.7113,5.7115,5.7104,5.711,5.6776,5.7077,5.7074,5.7073,5.7071,5.707,5.6229,5.6312,5.6376,5.6475,5.6526,5.659,5.6672,5.6702,5.6791,5.6894,5.6891,5.7009,5.7075,5.7199,5.7244,5.7336,5.73,5.7342,5.7352,5.7363,5.7372,5.709,5.7354,5.7353,5.7352,5.7352,5.7351,0,5.6489,5.6528,5.6618,5.6713,5.6791,5.6758,5.6832,5.6899,5.7002,5.7065,5.7146,5.7269,5.7368,5.7411,5.7508,5.7574,5.7564,5.7599,5.7594,5.7603,5.7399,5.7364,5.7605,5.7605,5.7605,5.7605,5.7605,5.7605,5.6634,5.6773,5.6784,5.6948,5.6986,5.71,5.7145,5.7203,5.7253,5.7391,5.7472,5.7499,5.7554,5.7654,5.7743,5.7753,5.779,5.783,5.7835,5.7644,5.7618,5.7593,5.756,5.7838,5.7839,5.8031,5.8032,5.8034]},{"header":{"parameterUnit":"m.s-1","parameterCategory":1,"la1":30.2991,"la2":30.254,"lo1":-89.0895,"lo2":-89.0444,"dy":0.0017,"dx":0.0017,"nx":28,"ny":28,"refTime":"2023-08-05T03:00:00:Z","depth":0,"parameterNumber":3,"parameterNumberName":"V-component_of_WINDS"},"data":[0,0,0,0,0,0,0,0,0,0,0,0,0,0,0,0,0,0,0,0,0,0,0,0,0,0,0,0,0,0,0,0,0,0,0,0,0,0,0,0,0,0,0,0,0,0,0,0,0,0,0,0,0,0,0,0,0,0,0.3412,0.3411,0,0.3357,0.3356,0.3356,0.3302,0.3302,0.3301,0.33,0.3243,0.3243,0.3242,0,0,0,0,0,0,0,0,0,0,0,0,0,0.347,0.3469,0.3412,0.3411,0.3411,0.3357,0.3356,0.3355,0.3302,0.3302,0.3301,0.33,0.3244,0.3243,0.3242,0,0,0,0,0,0,0,0,0,0,0,0,0,0.3433,0.3469,0.3412,0.3378,0.3374,0.3357,0.3356,0.3355,0.3303,0.3302,0.3301,0.33,0.3244,0.3243,0.3241,0.3254,0,0,0.3237,0.3237,0,0,0,0,0,0,0,0,0.3435,0.3431,0.3383,0.338,0.3376,0.3335,0.3356,0.3321,0.3303,0.333,0.33,0.3299,0.3275,0.3271,0.3263,0.3251,0.3249,0.3237,0.3237,0.3236,0.3236,0,0,0,0,0,0,0,0.3438,0.3433,0.339,0.3383,0.3378,0.3365,0.3358,0.3349,0.3309,0.3327,0.3323,0.3318,0.3273,0.3264,0.3261,0.3248,0.3237,0.3236,0.3235,0.3235,0.3243,0.3244,0,0,0,0,0,0,0.3446,0.3435,0.3392,0.3388,0.3404,0.3364,0.3357,0.3349,0.3309,0.3301,0.3319,0.3315,0.3267,0.3263,0.3259,0.3271,0.3236,0.3235,0.3234,0.3242,0.3243,0.3244,0,0,0,0,0,0,0.3447,0.3442,0.3394,0.3411,0.3404,0.3364,0.3356,0.3349,0.3341,0.3302,0.3294,0.3318,0.3266,0.3261,0.3255,0.3268,0.3234,0.3233,0.3241,0.3242,0.3244,0.3295,0,0,0,0,0,0,0.3449,0.3443,0.3448,0.3411,0.3403,0.3392,0.3357,0.3349,0.3339,0.3334,0.3299,0.3292,0.3265,0.3258,0.3254,0.3266,0.3232,0.3239,0.3241,0.3243,0.3292,0.3298,0.3303,0,0,0,0,0,0.3451,0.3464,0.3448,0.3443,0.3408,0.3393,0.3388,0.3357,0.334,0.3344,0.3319,0.3293,0.3267,0.3258,0.3253,0.3264,0.3239,0.3241,0.3243,0.3289,0.3296,0.3303,0,0,0,0,0,0,0.3504,0.3459,0.3441,0.3443,0.3422,0.3384,0.3389,0.3365,0.3349,0.3345,0.3306,0.3299,0.3298,0.328,0.3271,0.3274,0.3249,0.3251,0.3286,0.3292,0.3298,0.3302,0.3231,0,0,0,0,0,0.3515,0.3507,0.3468,0.3474,0.3464,0.3428,0.3421,0.3398,0.3375,0.3366,0.334,0.3319,0.3305,0.3298,0.3283,0.3288,0.328,0.3294,0.3299,0.3304,0.3306,0.3307,0.3312,0.3252,0.3252,0.3252,0,0,0.354,0.3514,0.3512,0.3484,0.3465,0.3457,0.3421,0.3415,0.3408,0.3365,0.3358,0.3339,0.3312,0.3312,0.331,0.3297,0.3321,0.3307,0.3311,0.331,0.331,0.3316,0.3321,0.3253,0.3253,0.3253,0,0,0.358,0.356,0.3562,0.3544,0.3516,0.3492,0.3492,0.3458,0.3443,0.3436,0.3403,0.3394,0.3372,0.3354,0.3343,0.3375,0.3351,0.3371,0.3401,0.3402,0.3407,0.3411,0.3422,0.3427,0.3373,0.3373,0.3373,0,0.3614,0.3601,0.3566,0.3561,0.355,0.351,0.3511,0.3495,0.3464,0.3457,0.3442,0.3413,0.3392,0.3387,0.3395,0.3387,0.3386,0.3375,0.3409,0.3412,0.3416,0.3426,0.3431,0.3376,0.3375,0.3375,0.3375,0,0.3644,0.3635,0.364,0.3611,0.36,0.3599,0.3563,0.3556,0.3533,0.3511,0.3503,0.3477,0.3456,0.3453,0.3431,0.3444,0.3437,0.3416,0.3391,0.3425,0.3434,0.3438,0.338,0.3379,0.3378,0.3377,0,0,0.3717,0.3668,0.3671,0.3657,0.3622,0.3615,0.3611,0.3591,0.3585,0.3564,0.356,0.3542,0.3522,0.3508,0.3484,0.3485,0.3512,0.3464,0.3462,0.3474,0.3525,0.3542,0.3547,0.3495,0.3496,0.3497,0.3528,0,0.3752,0.3743,0.3711,0.3712,0.3703,0.3664,0.3661,0.3639,0.3617,0.3606,0.3582,0.357,0.3544,0.3536,0.3535,0.3509,0.3522,0.3506,0.3491,0.3491,0.35,0.3552,0.357,0.36,0.3531,0.3531,0.3532,0,0.3792,0.3774,0.3774,0.3739,0.3735,0.3732,0.3711,0.3701,0.3675,0.3659,0.3643,0.3616,0.3609,0.3584,0.3574,0.3564,0.3556,0.3542,0.3542,0.354,0.3514,0.3552,0.3609,0.3614,0.3537,0.3537,0.3536,0,0.3846,0.3822,0.3818,0.3808,0.3767,0.3766,0.3749,0.3722,0.3712,0.3693,0.3685,0.3666,0.3655,0.364,0.3608,0.3593,0.3601,0.3574,0.3587,0.3588,0.3592,0.3592,0.3649,0.3585,0.3585,0.3585,0.3585,0,0.3889,0.3891,0.3842,0.384,0.384,0.3803,0.3804,0.3783,0.3759,0.3752,0.3717,0.3711,0.3668,0.3657,0.3631,0.3627,0.3622,0.3609,0.3602,0.3612,0.3614,0.3607,0.3604,0.3586,0.3586,0.3586,0.3585,0,0.395,0.3917,0.3911,0.3873,0.3863,0.3865,0.3832,0.3829,0.3804,0.3795,0.3791,0.3753,0.3738,0.3703,0.3679,0.3662,0.3664,0.3651,0.3673,0.3669,0.3684,0.3684,0.3739,0.3745,0.3677,0.3678,0.3678,0,0.398,0.398,0.3942,0.3935,0.3919,0.3908,0.3897,0.386,0.385,0.382,0.382,0.3802,0.3785,0.3763,0.3733,0.3714,0.3701,0.3721,0.3698,0.3708,0.3702,0.3702,0.3702,0.3727,0.3728,0.3729,0.373,0,0.4037,0.402,0.4006,0.3986,0.3974,0.3957,0.3937,0.3933,0.3891,0.3882,0.3866,0.3853,0.3828,0.3811,0.3787,0.3769,0.3742,0.3737,0.3739,0.375,0.3763,0.3757,0.3688,0.3736,0.3736,0.3735,0.3735,0.3734,0.4083,0.4081,0.4054,0.4039,0.4021,0.4003,0.3998,0.3972,0.3959,0.3936,0.3914,0.39,0.3873,0.3838,0.3822,0.381,0.3797,0.38,0.3801,0.3802,0.3807,0.3764,0.3805,0.3805,0.3805,0.3805,0.3805,0,0.4138,0.4119,0.4105,0.4079,0.4067,0.4043,0.402,0.4012,0.4,0.3977,0.3962,0.3943,0.3926,0.3894,0.3874,0.387,0.3858,0.3866,0.3867,0.3863,0.382,0.382,0.3877,0.3877,0.3877,0.3877,0.3877,0.3877,0.4166,0.4162,0.4142,0.4128,0.4107,0.4094,0.4083,0.4066,0.4048,0.4029,0.4014,0.3994,0.3967,0.3944,0.3927,0.3918,0.3912,0.3925,0.3912,0.3873,0.3866,0.3859,0.386,0.3924,0.3924,0.3956,0.3956,0.3956]}]]